Date,TemperatureHighF,TemperatureAvgF,TemperatureLowF,DewpointHighF,DewpointAvgF,DewpointLowF,HumidityHigh,HumidityAvg,HumidityLow,PressureMaxIn,PressureMinIn,WindSpeedMaxMPH,WindSpeedAvgMPH,GustSpeedMaxMPH,PrecipitationSumIn
2013-3-1,42,33,26,30,26,21,84,73,60,30.72,30.56,22,3,22,0.00
2013-3-2,48,34,23,29,24,19,89,69,41,30.61,30.23,13,2,13,0.00
2013-3-3,38,34,32,33,29,21,94,83,60,30.23,29.93,20,3,20,0.24
2013-3-4,33,24,13,30,14,4,93,68,38,30.44,29.94,24,4,24,0.08
2013-3-5,46,26,9,20,10,2,83,56,22,30.54,30.19,11,2,11,0.00
2013-3-6,49,35,27,22,17,14,66,49,30,30.19,29.88,22,4,23,0.00
2013-3-7,43,33,27,30,28,25,93,80,53,30.01,29.91,11,3,11,0.04
2013-3-8,40,33,29,31,29,27,95,87,63,29.98,29.76,12,3,12,0.00
2013-3-9,30,29,28,29,28,26,95,93,90,29.94,29.77,0,0,0,0.00
2013-3-10,41,34,31,23,18,15,59,52,43,30.47,30.42,17,5,18,1.29
2013-3-11,42,35,26,28,22,15,73,58,45,30.46,30.24,22,3,22,0.00
2013-3-12,47,38,32,31,29,26,83,70,50,30.35,30.24,16,3,16,0.00
2013-3-13,55,40,29,31,27,24,87,63,31,30.47,30.34,10,3,12,0.00
2013-3-14,64,45,32,28,25,17,71,49,19,30.37,30.17,15,4,15,0.00
2013-3-15,58,46,39,30,24,17,63,44,21,30.17,29.96,19,4,19,0.00
2013-3-16,48,40,32,27,22,15,65,49,29,29.96,29.81,22,4,22,0.00
2013-3-17,42,32,26,30,21,11,90,66,42,30.07,29.75,33,6,33,0.09
2013-3-18,38,30,24,20,16,10,85,56,41,30.23,30.07,24,3,24,0.04
2013-3-19,45,33,21,17,5,-14,60,34,11,30.36,30.22,15,3,17,0.00
2013-3-20,32,28,27,18,12,7,60,49,42,30.27,30.12,5,2,5,0.00
2013-3-21,42,27,17,33,21,10,94,80,52,30.11,29.75,40,14,40,0.12
2013-3-22,23,19,16,18,13,7,88,77,61,30.21,30.07,22,5,22,0.00
2013-3-23,25,17,9,15,10,3,88,77,55,30.47,30.20,17,4,17,0.07
2013-3-24,29,16,6,16,9,2,88,76,50,30.51,30.45,21,3,21,0.03
2013-3-25,40,24,8,23,13,3,84,66,43,30.51,30.28,13,2,13,0.08
2013-3-26,50,35,26,29,22,17,88,63,28,30.28,29.99,24,3,24,0.00
2013-3-27,54,38,25,30,24,20,86,60,27,30.11,30.04,14,3,14,0.00
2013-3-28,57,42,31,28,25,20,72,52,26,30.09,30.00,16,3,16,0.00
2013-3-29,55,43,34,32,29,26,81,58,34,30.19,30.09,21,4,22,0.00
2013-3-30,56,42,31,31,27,22,81,57,30,30.21,30.14,17,4,23,0.00
2013-3-31,59,43,28,29,22,9,80,50,14,30.17,29.97,16,3,18,0.00